TimeCET,TemperatureF,Dew PointF,Humidity,Sea Level PressureIn,VisibilityMPH,Wind Direction,Wind SpeedMPH,Gust SpeedMPH,PrecipitationIn,Events,Conditions,WindDirDegrees,DateUTC
6:00 AM,57.2,55.4,94,30.21,6.2,Calm,Calm,-,N/A,,Mostly Cloudy,0,2012-12-09 05:00:00
6:30 AM,57.2,55.4,94,30.21,6.2,Calm,Calm,-,N/A,,Mostly Cloudy,0,2012-12-09 05:30:00
7:00 AM,58,55,86,30.22,7,Calm,Calm,,,,Mostly Cloudy,,2012-12-09 06:00:00
7:00 AM,57.2,55.4,94,30.21,6.2,Calm,Calm,-,N/A,,Mostly Cloudy,0,2012-12-09 06:00:00
7:30 AM,57.2,55.4,94,30.24,6.2,Calm,Calm,-,N/A,,Mostly Cloudy,0,2012-12-09 06:30:00
8:00 AM,57.2,55.4,94,30.24,6.2,Calm,Calm,-,N/A,,Mostly Cloudy,0,2012-12-09 07:00:00
8:30 AM,57.2,53.6,88,30.24,6.2,Calm,Calm,-,N/A,,Mostly Cloudy,0,2012-12-09 07:30:00
9:00 AM,57.2,53.6,88,30.24,6.2,Calm,Calm,-,N/A,,Scattered Clouds,0,2012-12-09 08:00:00
9:30 AM,55.4,53.6,94,30.24,6.2,Calm,Calm,-,N/A,,Scattered Clouds,0,2012-12-09 08:30:00
10:00 AM,59.0,57.2,94,30.24,6.2,Calm,Calm,-,N/A,,Partly Cloudy,0,2012-12-09 09:00:00
10:30 AM,60.8,57.2,88,30.27,6.2,Calm,Calm,-,N/A,,Scattered Clouds,0,2012-12-09 09:30:00
11:00 AM,62.6,57.2,82,30.27,6.2,Calm,Calm,-,N/A,,Partly Cloudy,0,2012-12-09 10:00:00
11:30 AM,62.6,55.4,77,30.27,6.2,East,3.5,-,N/A,,Partly Cloudy,100,2012-12-09 10:30:00
12:00 PM,62.6,55.4,77,30.27,6.2,ENE,4.6,-,N/A,,Partly Cloudy,70,2012-12-09 11:00:00
12:30 PM,62.6,55.4,77,30.27,6.2,ENE,4.6,-,N/A,,Partly Cloudy,60,2012-12-09 11:30:00
1:00 PM,63,54,65,30.25,16,East,2.3,,,,Partly Cloudy,100,2012-12-09 12:00:00
1:00 PM,62.6,55.4,77,30.24,6.2,East,3.5,-,N/A,,Scattered Clouds,100,2012-12-09 12:00:00
1:30 PM,62.6,55.4,77,30.24,6.2,NE,3.5,-,N/A,,Partly Cloudy,50,2012-12-09 12:30:00
2:00 PM,62.6,55.4,77,30.24,6.2,ENE,3.5,-,N/A,,Partly Cloudy,60,2012-12-09 13:00:00
2:30 PM,62.6,55.4,77,30.21,6.2,Variable,2.3,-,N/A,,Partly Cloudy,0,2012-12-09 13:30:00
3:00 PM,62.6,55.4,77,30.21,6.2,NE,3.5,-,N/A,,Partly Cloudy,50,2012-12-09 14:00:00
3:30 PM,60.8,55.4,82,30.21,6.2,ENE,4.6,-,N/A,,Scattered Clouds,70,2012-12-09 14:30:00
4:00 PM,60.8,55.4,82,30.21,6.2,ENE,3.5,-,N/A,,Scattered Clouds,70,2012-12-09 15:00:00
4:30 PM,60.8,55.4,82,30.21,6.2,ENE,3.5,-,N/A,,Scattered Clouds,60,2012-12-09 15:30:00
5:00 PM,60.8,55.4,82,30.21,6.2,East,3.5,-,N/A,,Mostly Cloudy,80,2012-12-09 16:00:00
5:30 PM,60.8,55.4,82,30.21,6.2,ENE,5.8,-,N/A,,Mostly Cloudy,70,2012-12-09 16:30:00
6:00 PM,60.8,55.4,82,30.21,6.2,ENE,4.6,-,N/A,,Mostly Cloudy,70,2012-12-09 17:00:00
6:30 PM,60.8,55.4,82,30.21,6.2,East,3.5,-,N/A,,Mostly Cloudy,90,2012-12-09 17:30:00
7:00 PM,59,54,77,30.23,25,East,3.5,,,,Mostly Cloudy,100,2012-12-09 18:00:00
7:00 PM,59.0,53.6,82,30.21,6.2,East,3.5,-,N/A,,Scattered Clouds,100,2012-12-09 18:00:00
7:30 PM,59.0,53.6,82,30.21,6.2,ESE,3.5,-,N/A,,Scattered Clouds,110,2012-12-09 18:30:00